Temperature
26 26 26 25 25 24 24 23 22 22 21 21 20 20 19 19 19 19 18 18 18 18 18 18 17 17 17 17 17 17 17 16 16 16 16 15 15 15 15 16 16 16 16
25 26 26 25 25 25 24 23 22 22 21 21 20 20 19 19 19 18 18 18 18 18 18 17 17 17 17 17 17 17 17 16 16 16 16 15 15 15 15 15 15 16 16
25 25 25 25 25 25 24 23 22 22 21 20 20 19 19 19 18 18 18 18 18 17 17 17 17 17 17 17 17 17 17 16 16 16 16 16 15 15 15 15 15 15 15
24 24 25 25 25 24 24 23 22 22 21 20 20 19 19 18 18 18 18 17 17 17 17 17 17 17 17 17 17 17 16 16 16 16 16 16 16 16 15 15 15 15 15
23 23 23 23 23 23 23 23 22 21 21 20 20 19 18 18 18 18 17 17 17 17 17 17 16 16 16 16 16 16 16 16 16 16 15 16 16 16 16 16 16 15 15
22 21 21 21 21 22 22 22 22 22 21 21 20 19 18 18 18 18 18 18 17 17 17 17 16 16 16 15 15 16 16 16 16 16 15 15 15 16 16 16 16 16 16
21 20 20 20 20 20 20 21 22 22 22 21 20 19 18 18 18 18 17 17 17 17 17 16 16 16 16 15 15 15 15 16 16 15 15 15 15 15 15 15 15 15 16
19 19 19 19 19 19 20 21 21 21 21 21 19 18 18 18 18 17 17 17 17 16 16 16 16 15 15 15 15 15 15 15 15 15 15 15 15 15 15 15 15 15 15
17 18 18 18 19 19 20 20 20 21 21 20 19 18 18 18 17 17 17 17 16 16 16 16 15 15 15 15 15 15 15 15 15 15 15 15 15 15 15 15 15 15 15
15 16 17 17 18 19 20 20 20 20 20 20 19 18 18 18 18 17 17 17 17 16 16 16 15 15 15 15 15 15 15 15 14 14 14 14 15 15 15 15 14 14 15
15 16 17 17 19 20 20 20 20 20 20 19 19 18 18 18 18 17 17 17 17 16 16 16 15 15 15 15 15 15 15 14 14 14 14 14 14 14 14 14 14 14 14
16 17 18 18 19 20 20 20 20 20 20 19 19 19 18 18 18 18 17 17 17 16 16 15 15 15 15 15 15 15 14 14 14 14 14 14 14 14 14 14 14 14 14
17 18 19 19 20 20 20 20 20 20 20 19 19 18 18 18 18 17 17 17 17 16 16 15 15 15 15 15 15 15 14 14 14 13 13 13 13 13 13 13 13 14 14
17 18 19 19 20 20 20 20 20 20 19 19 19 18 18 18 18 17 17 17 17 16 16 15 15 15 15 15 15 15 15 14 14 14 13 13 13 13 13 13 13 13 13
15 17 18 19 20 20 20 20 19 19 19 18 18 18 17 17 17 17 17 17 17 16 16 15 15 15 15 15 15 15 15 14 14 14 13 13 13 13 12 12 12 12 13
14 16 17 18 19 19 19 19 19 19 19 18 18 17 17 17 17 17 17 16 16 16 16 16 15 15 15 15 14 15 15 14 14 14 13 13 13 13 12 12 12 12 12
15 15 16 16 17 17 17 17 17 18 18 17 17 17 16 16 16 16 16 16 16 16 15 16 15 15 15 14 14 14 14 14 14 14 14 13 13 13 13 13 12 12 12
15 15 15 16 16 16 16 16 16 16 16 16 15 15 15 16 16 16 16 15 15 15 15 15 15 15 15 15 14 14 14 14 14 14 14 14 13 13 13 13 13 12 12
15 15 15 15 15 15 15 15 15 15 14 14 14 14 14 14 14 14 15 14 14 14 14 14 14 14 15 14 14 14 14 14 14 14 14 14 14 14 13 13 13 13 12
15 15 15 15 15 14 14 14 14 13 13 13 12 12 13 13 13 14 14 13 13 13 13 13 14 14 14 14 14 14 14 14 14 14 14 14 14 14 14 13 13 13 13
15 15 15 15 14 14 14 13 13 13 12 12 12 12 12 12 12 12 12 12 12 12 12 12 13 13 13 13 13 13 13 13 13 13 13 13 13 14 14 14 14 13 13
15 15 15 15 14 14 14 14 13 13 13 12 12 12 11 11 11 11 11 11 12 12 12 12 12 12 12 12 12 13 13 13 13 13 13 13 13 13 14 14 13 13 13
15 15 15 15 15 14 14 14 13 13 13 13 12 12 11 11 11 11 11 11 11 12 12 12 12 12 12 12 12 12 12 12 12 12 13 13 13 13 13 13 13 13 13
16 15 15 15 15 15 14 14 14 13 13 13 12 12 12 11 11 11 11 11 11 11 11 11 11 11 11 11 11 11 12 12 12 12 12 12 12 13 13 13 13 12 12
16 16 16 15 15 15 15 14 14 13 13 13 12 12 12 11 11 11 11 11 11 11 10 10 11 11 11 11 11 11 11 11 11 12 12 12 12 12 12 12 12 12 12
16 16 16 16 15 15 15 15 14 14 13 13 12 12 12 11 11 11 11 11 10 10 10 10 10 10 10 10 10 10 10 11 11 11 11 12 11 11 11 11 11 11 11
Wind_Speed
10 15 19 19 16 15 15 14 13 13 11 7 6 6 5 4 4 4 5 5 4 4 4 3 5 6 7 8 8 5 5 3 3 4 3 4 3 2 3 3 3 4 6
5 10 15 17 16 16 15 14 13 13 12 8 6 4 4 4 4 4 4 6 6 6 5 6 4 5 6 7 7 6 5 3 3 4 4 2 3 3 1 2 4 4 4
6 9 13 14 15 15 16 13 11 11 10 9 7 5 4 4 3 3 4 4 6 6 5 6 5 4 5 7 8 8 8 5 3 3 5 4 5 3 2 2 3 4 3
2 6 11 13 14 14 13 13 12 11 9 9 9 8 6 5 5 4 5 5 5 5 5 5 6 6 5 6 7 7 6 7 5 2 2 3 4 4 2 2 2 3 4
1 3 7 11 10 12 13 12 11 10 8 8 9 8 5 4 3 3 4 5 4 4 4 5 5 6 5 6 6 6 6 6 6 5 3 1 1 2 3 3 3 2 4
5 5 6 9 10 9 8 9 10 8 7 8 8 8 7 6 5 4 4 4 2 2 3 4 5 6 5 6 7 7 8 7 7 6 5 4 3 3 3 2 3 4 4
9 10 9 8 9 8 5 5 8 8 7 7 7 7 7 7 6 5 5 4 3 3 3 3 4 4 5 6 6 6 7 8 9 8 6 6 5 3 3 2 2 3 3
4 7 9 9 8 8 7 6 7 7 7 7 7 6 6 5 4 6 5 5 4 3 3 3 3 4 4 5 5 5 6 7 8 9 8 6 6 5 4 4 3 2 2
10 6 5 5 6 8 9 9 8 6 7 7 6 5 6 5 5 4 4 4 4 3 4 3 3 3 3 4 4 4 5 5 6 7 9 7 7 7 6 5 4 4 5
12 9 7 2 2 5 6 7 7 7 7 6 6 5 6 6 5 5 5 5 5 4 5 3 3 2 2 2 3 2 3 5 5 5 7 7 7 8 8 7 6 5 5
10 7 4 3 7 6 5 6 8 7 7 6 5 4 4 5 5 5 6 6 5 6 6 5 4 4 4 3 3 3 3 4 4 4 6 7 8 7 8 7 7 5 4
8 5 6 8 9 8 6 6 7 8 7 6 5 4 4 5 5 5 6 6 6 6 6 5 5 5 5 5 4 4 3 3 4 4 5 5 5 7 7 7 8 7 6
10 7 9 10 11 9 8 8 8 7 6 6 5 5 5 6 6 6 6 6 6 6 6 6 6 6 6 6 5 4 3 3 4 4 5 5 5 5 5 7 8 7 7
9 5 5 6 8 7 6 6 6 6 6 6 5 5 5 6 7 7 6 7 7 7 7 7 7 7 6 6 5 4 4 3 3 4 4 4 5 5 5 5 7 7 8
13 10 7 6 6 6 5 3 2 2 4 6 6 5 5 5 6 6 7 7 7 8 7 7 6 6 6 6 7 6 5 5 5 4 4 5 6 6 5 4 4 6 6
14 13 13 13 13 12 11 10 9 6 4 4 3 3 3 4 4 5 6 5 6 6 6 7 7 7 7 9 12 9 7 6 6 6 6 6 7 9 10 8 8 6 5
11 11 12 12 12 12 12 13 12 12 12 10 8 5 3 3 3 2 0 2 4 4 5 6 7 7 9 12 13 15 8 7 7 7 6 6 7 10 7 10 11 11 10
10 9 9 10 10 10 10 10 10 11 11 10 9 9 8 8 7 6 5 3 2 2 4 5 6 7 9 12 13 14 9 7 7 7 7 7 8 7 9 8 7 8 9
6 6 7 7 8 9 8 9 9 8 9 8 8 7 7 7 7 7 6 4 3 2 2 3 4 6 7 9 11 10 5 6 6 6 6 7 7 10 11 9 8 7 7
5 6 6 7 7 7 7 9 8 8 7 6 6 6 6 6 6 6 5 4 4 4 4 3 2 3 4 5 8 10 5 5 4 4 4 5 7 10 11 10 8 8 7
4 6 6 5 4 4 7 8 7 6 4 4 5 6 6 6 6 6 5 5 5 5 6 5 5 4 4 4 4 6 5 5 4 3 3 4 7 8 10 11 9 9 6
3 4 4 4 3 3 5 6 5 4 2 4 5 5 6 6 6 7 7 6 6 7 7 6 6 6 6 7 7 4 3 5 4 4 3 4 5 3 5 7 7 8 7
1 2 2 3 4 4 2 4 5 3 2 4 4 4 5 6 6 6 6 6 6 5 5 5 5 5 6 7 11 9 4 1 3 3 5 5 5 5 5 6 8 7 5
3 1 1 2 4 4 2 2 3 2 4 3 2 1 2 3 4 5 5 5 5 5 5 6 6 5 5 5 6 6 5 3 1 1 2 5 7 6 6 6 5 4 3
4 2 1 2 3 3 3 2 3 4 4 2 1 0 0 1 2 3 4 4 4 4 4 4 5 5 6 7 9 5 3 2 1 2 3 3 3 3 3 3 3 3 3
5 4 5 5 3 3 4 4 1 4 4 2 2 2 2 2 1 0 1 4 3 5 6 6 5 4 6 9 8 6 4 3 2 3 3 3 3 3 3 3 3 2 2
Wind_Direction
238 191 179 177 175 174 172 171 167 167 159 156 157 157 168 177 182 194 201 192 188 180 167 194 200 185 177 176 164 150 147 147 137 108 73 13 12 108 142 155 160 172 166
275 190 174 171 171 174 173 168 162 161 161 158 156 156 155 169 181 183 194 201 190 181 182 187 201 201 185 177 173 154 144 148 152 138 118 57 341 326 53 161 179 188 181
247 190 169 165 166 171 168 161 149 145 146 142 132 118 103 98 130 181 201 212 201 196 186 182 183 206 202 191 186 174 155 158 174 160 147 154 205 249 306 230 203 194 190
255 180 165 160 165 163 147 138 134 132 136 140 144 148 156 168 185 186 200 221 216 203 193 187 184 191 196 203 204 188 170 153 164 176 176 156 158 158 205 292 261 222 203
106 161 166 153 142 135 132 133 129 129 135 140 147 148 151 163 163 169 196 216 225 215 196 184 183 189 191 200 208 193 187 168 163 166 162 138 153 140 145 203 244 258 244
113 100 95 103 100 96 111 132 134 137 141 143 145 149 153 156 158 175 194 209 213 212 199 186 191 197 196 199 204 198 194 188 170 171 169 174 180 191 152 163 207 222 246
129 125 112 99 102 112 137 152 143 147 153 150 153 159 164 169 181 192 204 204 201 213 216 192 198 202 207 205 198 196 199 191 182 180 185 189 190 166 154 153 203 220 244
78 124 132 132 141 152 173 175 166 162 164 163 169 174 176 176 192 203 200 200 198 209 203 188 195 200 204 205 202 203 202 197 196 195 191 192 196 185 172 164 168 204 242
9 42 77 108 147 170 182 180 173 173 177 179 182 195 200 195 202 202 190 182 180 184 180 177 183 183 185 197 197 208 209 198 203 206 203 202 201 196 189 171 169 181 209
5 19 35 27 209 198 184 174 175 185 188 189 195 204 204 196 186 172 173 174 176 170 167 182 200 198 176 163 172 189 195 194 206 207 208 212 210 203 198 184 176 183 198
344 354 353 285 249 232 198 183 186 189 190 189 190 181 174 166 161 168 180 182 182 179 183 191 201 203 198 185 174 179 177 195 212 213 213 220 213 209 203 188 183 187 181
303 278 256 252 251 240 219 204 197 196 193 177 160 160 155 160 170 188 195 192 192 191 192 192 194 201 206 204 199 202 196 207 223 223 218 223 217 212 202 194 194 194 185
288 259 248 253 259 249 228 216 210 201 189 167 160 170 182 186 193 204 205 202 201 201 202 199 202 204 207 209 211 211 217 223 227 222 217 215 201 205 202 201 197 194 188
309 279 261 267 270 266 246 227 222 201 179 164 166 193 213 213 210 212 213 212 208 204 205 210 211 208 205 206 208 208 216 224 226 220 215 210 202 199 195 197 191 184 178
21 28 30 22 15 10 4 353 285 214 175 168 180 205 232 241 236 228 223 221 216 214 209 212 218 212 203 208 204 203 209 214 221 221 216 213 210 201 193 186 182 181 175
21 26 36 43 45 44 43 43 39 43 92 138 179 217 243 254 253 237 223 219 224 229 219 216 216 212 215 217 208 200 204 208 216 225 228 228 234 232 223 210 196 186 175
17 28 39 48 51 51 52 51 45 49 55 54 48 36 29 22 3 352 206 227 236 237 234 227 215 214 223 227 220 211 203 208 216 221 224 234 234 231 227 228 219 209 202
16 27 40 51 52 53 54 54 52 55 58 57 53 49 49 44 34 35 28 4 322 257 241 234 224 222 231 232 231 218 205 213 221 221 222 232 245 227 212 210 213 215 212
17 33 46 57 56 53 54 56 50 50 52 48 43 39 44 42 33 24 10 359 351 334 290 256 230 226 243 241 235 213 190 215 232 236 234 232 242 246 218 199 211 221 227
26 39 43 49 50 46 54 54 43 42 41 40 40 37 39 37 24 7 355 349 347 339 335 334 299 253 257 265 242 206 187 214 238 255 266 263 255 251 222 198 199 214 225
43 54 52 47 37 44 55 47 33 19 13 39 46 35 25 22 18 7 3 1 7 16 20 24 20 18 3 345 310 216 183 204 224 245 267 283 287 262 223 194 196 208 196
46 55 46 20 7 35 52 34 8 340 23 53 53 38 24 23 26 28 24 23 28 33 24 22 18 14 11 14 10 13 203 189 197 225 242 262 262 228 187 179 185 173 149
336 49 34 349 345 1 35 15 335 335 84 62 54 47 37 34 34 41 36 29 27 29 20 19 15 2 2 6 13 12 9 222 211 240 254 237 169 128 115 127 134 129 127
311 351 42 339 330 326 319 326 347 45 105 87 79 64 57 45 38 37 34 37 25 20 17 14 3 350 348 355 353 348 345 350 347 354 76 113 113 101 102 101 98 101 129
309 286 237 277 309 300 276 303 34 79 107 126 173 243 334 59 44 44 34 27 29 18 8 356 345 343 341 337 332 321 312 303 249 132 111 109 119 114 102 95 93 92 100
322 296 273 267 270 246 246 256 210 120 133 158 219 259 293 306 295 294 17 33 22 16 16 8 357 340 341 343 354 354 339 323 162 128 126 132 127 124 125 123 109 102 120
Height
1471 1473 1477 1481 1486 1490 1493 1495 1498 1501 1504 1507 1510 1512 1513 1515 1517 1519 1521 1522 1524 1526 1527 1528 1530 1531 1533 1534 1535 1537 1538 1540 1542 1543 1545 1546 1546 1545 1544 1545 1546 1546 1546
1468 1469 1472 1477 1481 1485 1488 1491 1494 1497 1500 1503 1506 1509 1511 1513 1514 1516 1518 1520 1521 1523 1524 1525 1526 1528 1529 1531 1532 1533 1535 1537 1539 1540 1542 1544 1546 1544 1544 1544 1545 1546 1546
1466 1467 1469 1472 1476 1480 1484 1487 1491 1495 1498 1501 1504 1506 1508 1509 1511 1513 1515 1517 1519 1520 1521 1522 1523 1524 1525 1527 1528 1529 1531 1533 1535 1537 1540 1541 1541 1542 1543 1543 1544 1545 1545
1464 1465 1467 1469 1473 1476 1480 1485 1489 1493 1496 1499 1501 1502 1504 1505 1507 1509 1512 1514 1516 1517 1517 1518 1519 1520 1521 1523 1524 1525 1527 1529 1531 1534 1536 1538 1539 1540 1540 1542 1543 1544 1544
1463 1465 1467 1468 1471 1474 1478 1483 1488 1491 1494 1496 1497 1499 1501 1503 1505 1507 1509 1511 1512 1513 1514 1514 1515 1516 1517 1519 1521 1521 1523 1525 1527 1529 1532 1534 1536 1537 1538 1538 1540 1542 1542
1462 1466 1468 1469 1472 1475 1480 1484 1487 1489 1492 1493 1495 1496 1499 1501 1503 1505 1507 1508 1510 1510 1510 1511 1511 1512 1513 1514 1516 1517 1518 1521 1523 1526 1528 1530 1532 1534 1535 1537 1538 1539 1540
1460 1465 1469 1470 1474 1478 1483 1486 1487 1488 1490 1492 1493 1495 1497 1499 1501 1503 1505 1506 1507 1508 1508 1508 1508 1508 1509 1510 1511 1512 1513 1516 1518 1521 1524 1527 1529 1531 1533 1534 1536 1537 1538
1464 1465 1467 1470 1475 1479 1484 1486 1487 1488 1489 1491 1493 1495 1497 1499 1500 1502 1503 1504 1505 1506 1506 1505 1505 1505 1505 1505 1506 1508 1509 1511 1513 1516 1519 1522 1524 1526 1528 1530 1533 1534 1536
1471 1469 1470 1472 1475 1479 1483 1485 1487 1488 1489 1491 1493 1495 1497 1498 1500 1501 1502 1503 1504 1504 1503 1503 1502 1502 1501 1502 1502 1503 1505 1506 1508 1511 1513 1516 1519 1521 1523 1526 1529 1532 1532
1476 1474 1474 1475 1479 1481 1483 1486 1488 1489 1490 1492 1493 1495 1496 1498 1499 1500 1501 1502 1502 1502 1502 1501 1501 1500 1500 1499 1500 1500 1501 1502 1504 1506 1508 1510 1513 1515 1518 1521 1523 1526 1528
1479 1478 1478 1478 1480 1481 1483 1485 1487 1489 1490 1492 1493 1495 1496 1498 1499 1500 1500 1501 1501 1500 1500 1500 1500 1499 1499 1498 1498 1498 1498 1498 1500 1501 1502 1504 1507 1509 1512 1515 1517 1519 1522
1483 1481 1480 1479 1479 1481 1483 1484 1486 1488 1490 1492 1493 1495 1496 1498 1499 1500 1500 1500 1500 1499 1499 1499 1499 1499 1498 1498 1497 1496 1496 1496 1496 1497 1498 1499 1501 1503 1505 1508 1511 1513 1516
1482 1482 1481 1479 1479 1480 1481 1483 1485 1488 1490 1492 1493 1495 1496 1497 1497 1498 1499 1499 1498 1498 1498 1498 1498 1498 1498 1497 1497 1496 1495 1495 1495 1495 1495 1496 1497 1498 1500 1502 1505 1508 1511
1480 1480 1480 1481 1480 1480 1480 1482 1484 1486 1489 1490 1492 1493 1495 1495 1496 1497 1497 1497 1497 1497 1497 1497 1497 1497 1497 1497 1496 1496 1495 1495 1494 1494 1494 1494 1495 1496 1497 1498 1499 1502 1505
1482 1480 1480 1480 1480 1480 1480 1481 1483 1485 1487 1488 1490 1491 1492 1493 1494 1493 1494 1495 1495 1495 1495 1495 1495 1495 1496 1496 1496 1495 1495 1494 1494 1494 1494 1494 1493 1494 1495 1495 1496 1497 1499
1487 1485 1483 1482 1482 1482 1482 1482 1483 1483 1484 1486 1487 1488 1488 1489 1490 1490 1490 1491 1491 1492 1492 1493 1493 1493 1493 1494 1494 1494 1494 1494 1494 1493 1493 1493 1493 1493 1493 1494 1494 1495 1495
1494 1490 1488 1486 1486 1485 1485 1484 1484 1484 1484 1485 1485 1485 1486 1486 1486 1486 1486 1487 1487 1488 1488 1489 1489 1490 1490 1491 1491 1492 1492 1492 1492 1492 1492 1492 1492 1492 1492 1492 1492 1493 1494
1499 1496 1494 1492 1491 1490 1488 1487 1487 1487 1486 1485 1485 1484 1484 1483 1482 1482 1483 1483 1483 1483 1484 1484 1485 1486 1486 1487 1488 1488 1489 1489 1489 1490 1490 1490 1490 1490 1491 1491 1491 1491 1492
1504 1501 1499 1497 1495 1493 1492 1490 1489 1488 1487 1485 1484 1483 1482 1481 1480 1480 1479 1479 1479 1479 1479 1480 1480 1481 1482 1483 1483 1484 1485 1485 1486 1487 1487 1487 1487 1488 1488 1489 1489 1489 1490
1506 1504 1503 1501 1498 1497 1495 1493 1491 1490 1488 1487 1485 1484 1482 1480 1478 1477 1477 1476 1475 1475 1475 1475 1476 1476 1477 1478 1479 1480 1480 1481 1482 1483 1484 1484 1484 1485 1485 1486 1487 1487 1488
1509 1507 1505 1503 1501 1500 1498 1496 1494 1493 1492 1490 1488 1486 1483 1481 1479 1478 1477 1476 1475 1474 1474 1473 1473 1473 1473 1474 1475 1475 1476 1477 1477 1478 1480 1480 1481 1481 1482 1483 1484 1485 1486
1510 1509 1507 1506 1504 1503 1501 1499 1497 1496 1494 1493 1490 1488 1485 1483 1481 1480 1479 1478 1477 1476 1475 1474 1473 1472 1472 1472 1471 1472 1472 1472 1473 1474 1475 1476 1477 1478 1478 1479 1481 1482 1484
1511 1510 1509 1508 1507 1506 1504 1502 1500 1498 1496 1495 1492 1490 1487 1485 1484 1483 1482 1481 1480 1478 1476 1475 1474 1472 1472 1471 1470 1469 1469 1469 1469 1470 1471 1472 1473 1474 1475 1476 1478 1480 1481
1512 1512 1511 1510 1509 1507 1506 1504 1501 1499 1498 1496 1494 1492 1490 1488 1486 1485 1484 1483 1481 1480 1478 1476 1474 1473 1471 1470 1468 1467 1467 1467 1467 1467 1468 1469 1470 1472 1473 1475 1476 1478 1479
1513 1512 1512 1511 1510 1508 1507 1505 1503 1501 1499 1497 1496 1494 1492 1490 1489 1487 1486 1484 1482 1480 1479 1476 1474 1472 1470 1468 1467 1466 1465 1465 1465 1466 1467 1468 1469 1470 1472 1473 1475 1476 1478
1513 1513 1512 1511 1510 1508 1507 1506 1504 1501 1499 1498 1496 1495 1493 1491 1490 1488 1487 1485 1483 1481 1479 1477 1475 1472 1471 1468 1466 1465 1464 1464 1464 1465 1466 1467 1468 1470 1471 1473 1474 1475 1476